Regional Weather Roundup
Issued by NWS State College, PA

Home | Current Version | Previous Version | Graphics & Text | Print | Product List | Glossary On
Versions: 1 2 3 4 5 6 7 8 9 10 11 12 13 14 15 16 17 18 19 20 21 22 23 24 25 26 27 28 29 30 31 32 33 34 35 36 37 38 39 40 41 42 43 44 45 46 47 48 49 50
000
ASUS41 KCTP 220010
RWRCTP

REGIONAL WEATHER ROUNDUP
NATIONAL WEATHER SERVICE STATE COLLEGE PA
800 PM EDT SAT APR 21 2018

Note: "fair" indicates few or no clouds below 12,000 feet with no
significant weather and/or obstructions to visibility.

* = STATION THAT DOES NOT REPORT PRECIPITATION /E.G. RAIN...SNOW...ETC/
    THUNDER OR FOG.

PAZ002>004-007>009-013>016-020>023-029>032-220100-
WESTERN PENNSYLVANIA

CITY           SKY/WX    TMP DP  RH WIND       PRES   REMARKS
ERIE           FAIR      42  32  67 CALM      30.41S
MEADVILLE      FAIR      46  27  47 N7        30.38R
FRANKLIN*      FAIR      50  27  40 N6        30.36R
NEW CASTLE     FAIR      53  24  32 N5        30.37
BEAVER COUNTY  NOT AVBL
BUTLER*        FAIR      53  21  28 CALM      30.35S
PITTSBURGH INT CLOUDY    54  23  30 N5        30.34S
PITTSBURGH     FAIR      53  24  32 N5        30.34R
INDIANA*       PTCLDY    54  25  32 CALM      30.38R
LATROBE        CLOUDY    54  19  26 CALM      30.36R
WASHINGTON CO* FAIR      52  22  30 N5        30.37S
$$

PAZ004>006-010>012-017>019-024>028-033>037-041-042-045-046-049>053-220100-
CENTRAL PENNSYLVANIA

CITY           SKY/WX    TMP DP  RH WIND       PRES   REMARKS
BRADFORD       FAIR      46  20  35 N7        30.36R
DUBOIS         FAIR      52  21  29 NW3       30.33R
CLEARFIELD     FAIR      53  21  28 N5        30.33R
JOHNSTOWN      FAIR      49  20  31 NW7       30.32S
ALTOONA        FAIR      56  23  27 CALM      30.33R
STATE COLLEGE  CLEAR     55  19  24 CALM      30.32R
WILLIAMSPORT   FAIR      57  17  21 N3        30.32R
SELINSGROVE    FAIR      53  30  41 CALM      30.33R
FT INDIANTOWN  FAIR      57  24  28 CALM      30.33R
CAPITAL CITY   FAIR      59  26  28 S3        30.33R
HARRISBURG     MOCLDY    51  33  50 CALM      30.33R
YORK           FAIR      50  34  54 CALM      30.34R
$$

PAZ038>040-043-044-047-048-054-055-060>062-067>071-220100-
EASTERN PENNSYLVANIA

CITY           SKY/WX    TMP DP  RH WIND       PRES   REMARKS
SCRANTON       FAIR      51  22  31 N8        30.32R
MOUNT POCONO   FAIR      46  18  32 NW7       30.30R
ALLENTOWN      FAIR      54  24  31 N7        30.31R
QUAKERTOWN*    CLEAR     55  27  33 CALM      30.31R
READING        FAIR      56  25  30 W6        30.31R
LANCASTER      FAIR      54  30  40 W5        30.33R
COATESVILLE    FAIR      54  25  32 SW3       30.35R
POTTSTOWN      FAIR      54  25  32 SW3       30.33R
BLUE BELL      FAIR      54  32  43 SW5       30.33S
DOYLESTOWN     FAIR      55  26  32 W3        30.30R
WILLOW GROVE   NOT AVBL
NORTH PHILA    FAIR      57  26  30 W7        30.33R
PHILADELPHIA   MOCLDY    57  28  33 W13       30.34R
$$




USA.gov is the U.S. government's official web portal to all federal, state and local government web resources and services.